Powrót do katalogu

COSMOS 1275 DEB

AktywnyPO
NORAD 12780·DEBRIS·🇷🇺 Russia

Wystrzelony Jun 4, 1981 z Plesetsk Cosmodrome

Loading…

Następne Przeloty (najbliższe 24 godziny)

TLE

ŚwieżeSource: Space-Track

Epoka: Sep 14, 2026, 07:57 UTC

1 12780U 81053DW  26257.33159880  .00000472  00000-0  35912-3 0  9990
2 12780  82.9501   6.6011 0021343 243.7320 136.9336 13.91674944277525

Śledź COSMOS 1275 DEB w czasie rzeczywistym z AllMySat

Download on the App Store